HAZ5991 ROAH-RJCC

Flight info

Callsign HAZ5991
Flight time 2h 34m
Altitude 37000
Route AMAMI Y25 KANAH HKC Y45 MARCO Y141 SAMON Y14 GOLDO Y19 MRE Y13 SIRAO Y139 NAVER
Aircraft B77W/H-SDE1E2E3FGHIJ2J3J4J5M1RWXY/LB1D1

Departure

Time 2026-04-23 05:58
Airport Naha International Airport (ROAH)

Arrival

Time 2026-04-23 08:33
Airport New Chitose Airport (RJCC)
Time Latitude Longitude Altitude Speed Heading
2026-04-23 05:24 26.20717 127.64848 26 ft 0 kts 47°
2026-04-23 05:49 26.20714 127.64844 25 ft 4 kts 47°
2026-04-23 05:49 26.20699 127.64827 37 ft 4 kts 52°
2026-04-23 05:49 26.20690 127.64802 45 ft 4 kts 91°
2026-04-23 05:50 26.20688 127.64777 51 ft 3 kts 70°
2026-04-23 05:50 26.20675 127.64754 21 ft 4 kts 31°
2026-04-23 05:50 26.20650 127.64745 25 ft 4 kts
2026-04-23 05:50 26.20624 127.64745 24 ft 3 kts 357°
2026-04-23 05:51 26.20620 127.64745 24 ft 0 kts 358°
2026-04-23 05:54 26.20636 127.64744 24 ft 5 kts 358°
2026-04-23 05:54 26.20696 127.64742 23 ft 12 kts 358°
2026-04-23 05:55 26.20792 127.64737 23 ft 13 kts 357°
2026-04-23 05:55 26.20886 127.64732 23 ft 13 kts 357°
2026-04-23 05:55 26.20961 127.64699 26 ft 12 kts 304°
2026-04-23 05:55 26.20972 127.64665 24 ft 1 kts 280°
2026-04-23 05:56 26.20973 127.64623 24 ft 9 kts 262°
2026-04-23 05:56 26.20949 127.64523 25 ft 9 kts 242°
2026-04-23 05:56 26.20926 127.64507 24 ft 3 kts 176°
2026-04-23 05:56 26.20877 127.64523 24 ft 12 kts 171°
2026-04-23 05:57 26.20845 127.64526 24 ft 0 kts 176°
2026-04-23 05:57 26.20786 127.64530 24 ft 35 kts 177°
2026-04-23 05:57 26.20279 127.64554 25 ft 109 kts 177°
2026-04-23 05:57 26.19298 127.64601 25 ft 170 kts 178°
2026-04-23 05:58 26.18023 127.64686 378 ft 187 kts 179°
2026-04-23 05:58 26.16750 127.64778 1087 ft 183 kts 181°
2026-04-23 05:58 26.15444 127.64857 1642 ft 193 kts 183°
2026-04-23 05:58 26.14049 127.64912 2014 ft 212 kts 184°
2026-04-23 05:59 26.12480 127.64971 2318 ft 234 kts 183°
2026-04-23 05:59 26.10818 127.65037 2913 ft 243 kts 183°
2026-04-23 05:59 26.09102 127.65108 3549 ft 250 kts 183°
2026-04-23 05:59 26.07348 127.65182 4222 ft 254 kts 183°
2026-04-23 06:00 26.05568 127.65259 4942 ft 258 kts 183°
2026-04-23 06:00 26.03770 127.65454 5570 ft 266 kts 169°
2026-04-23 06:00 26.02126 127.66518 6172 ft 286 kts 139°
2026-04-23 06:00 26.01081 127.68441 6826 ft 301 kts 108°
2026-04-23 06:01 26.00912 127.70748 7357 ft 309 kts 89°
2026-04-23 06:01 26.01071 127.73158 7844 ft 315 kts 81°
2026-04-23 06:01 26.01930 127.75401 8304 ft 320 kts 50°
2026-04-23 06:01 26.03363 127.77284 8967 ft 320 kts 47°
2026-04-23 06:02 26.04801 127.79196 9788 ft 323 kts 47°
2026-04-23 06:02 26.06239 127.81137 10482 ft 330 kts 47°
2026-04-23 06:02 26.07743 127.83175 10827 ft 354 kts 48°
2026-04-23 06:02 26.09366 127.85381 11049 ft 382 kts 48°
2026-04-23 06:03 26.11099 127.87751 11329 ft 405 kts 49°
2026-04-23 06:03 26.12899 127.90223 12032 ft 415 kts 49°
2026-04-23 06:03 26.14729 127.92738 12924 ft 420 kts 49°
2026-04-23 06:03 26.16592 127.95262 13803 ft 422 kts 45°
2026-04-23 06:04 26.18797 127.97396 14400 ft 420 kts 30°
2026-04-23 06:04 26.21299 127.99121 15021 ft 427 kts 27°
2026-04-23 06:04 26.23867 128.00824 15751 ft 431 kts 27°
2026-04-23 06:04 26.26452 128.02544 16498 ft 435 kts 27°
2026-04-23 06:05 26.29056 128.04299 17151 ft 440 kts 27°
2026-04-23 06:05 26.31685 128.06095 17738 ft 446 kts 27°
2026-04-23 06:05 26.34340 128.07930 18315 ft 451 kts 28°
2026-04-23 06:05 26.37015 128.09794 18880 ft 455 kts 28°
2026-04-23 06:06 26.39707 128.11680 19450 ft 458 kts 28°
2026-04-23 06:06 26.42412 128.13579 20019 ft 461 kts 28°
2026-04-23 06:06 26.45136 128.15494 20579 ft 465 kts 28°
2026-04-23 06:06 26.47885 128.17426 21132 ft 469 kts 27°
2026-04-23 06:07 26.50659 128.19376 21635 ft 473 kts 27°
2026-04-23 06:07 26.53455 128.21342 22164 ft 477 kts 27°
2026-04-23 06:07 26.56272 128.23324 22692 ft 480 kts 27°
2026-04-23 06:07 26.59105 128.25319 23194 ft 484 kts 27°
2026-04-23 06:08 26.61963 128.27331 23725 ft 487 kts 27°
2026-04-23 06:08 26.64843 128.29360 24201 ft 492 kts 27°
2026-04-23 06:08 26.67750 128.31409 24574 ft 496 kts 27°
2026-04-23 06:08 26.70681 128.33477 24948 ft 500 kts 27°
2026-04-23 06:09 26.73631 128.35561 25334 ft 503 kts 27°
2026-04-23 06:09 26.76602 128.37660 25726 ft 506 kts 27°
2026-04-23 06:09 26.79589 128.39772 26110 ft 510 kts 27°
2026-04-23 06:09 26.82597 128.41900 26496 ft 513 kts 27°
2026-04-23 06:10 26.85627 128.44045 26917 ft 517 kts 27°
2026-04-23 06:10 26.88682 128.46207 27283 ft 523 kts 27°
2026-04-23 06:10 26.91770 128.48394 27652 ft 527 kts 27°
2026-04-23 06:10 26.94880 128.50599 28061 ft 531 kts 27°
2026-04-23 06:11 26.97972 128.52794 28437 ft 534 kts 27°
2026-04-23 06:11 27.01117 128.55028 28832 ft 537 kts 27°
2026-04-23 06:11 27.04282 128.57278 29134 ft 540 kts 27°
2026-04-23 06:11 27.07510 128.59574 29408 ft 544 kts 27°
2026-04-23 06:12 27.10663 128.61818 29724 ft 545 kts 27°
2026-04-23 06:12 27.13865 128.64099 30111 ft 545 kts 27°
2026-04-23 06:12 27.20231 128.68643 31044 ft 539 kts 27°
2026-04-23 06:13 27.23390 128.70898 31457 ft 538 kts 26°
2026-04-23 06:13 27.26546 128.73152 31823 ft 539 kts 26°
2026-04-23 06:13 27.29717 128.75415 32148 ft 539 kts 26°
2026-04-23 06:13 27.32884 128.77678 32540 ft 538 kts 26°
2026-04-23 06:14 27.36036 128.79933 32967 ft 537 kts 26°
2026-04-23 06:14 27.39182 128.82187 33383 ft 535 kts 26°
2026-04-23 06:14 27.42316 128.84433 33740 ft 534 kts 25°
2026-04-23 06:14 27.45453 128.86682 34065 ft 534 kts 25°
2026-04-23 06:15 27.48587 128.88930 34334 ft 535 kts 25°
2026-04-23 06:15 27.51717 128.91176 34697 ft 532 kts 25°
2026-04-23 06:15 27.57982 128.95676 34787 ft 534 kts 25°
2026-04-23 06:16 27.64218 129.00167 34785 ft 529 kts 25°
2026-04-23 06:16 27.70412 129.04632 34785 ft 527 kts 25°
2026-04-23 06:17 27.76584 129.09084 34790 ft 526 kts 25°
2026-04-23 06:17 27.82756 129.13542 34800 ft 527 kts 25°
2026-04-23 06:18 27.88945 129.18019 34791 ft 529 kts 25°
2026-04-23 06:18 27.95150 129.22514 34791 ft 530 kts 25°
2026-04-23 06:19 28.01374 129.27030 34800 ft 532 kts 25°
2026-04-23 06:19 28.07619 129.31567 34777 ft 535 kts 25°
2026-04-23 06:20 28.13881 129.36126 34764 ft 535 kts 25°
2026-04-23 06:20 28.20135 129.40685 34774 ft 534 kts 25°
2026-04-23 06:21 28.26378 129.45241 34752 ft 533 kts 25°
2026-04-23 06:21 28.32606 129.49793 34762 ft 532 kts 25°
2026-04-23 06:22 28.38822 129.54339 34766 ft 531 kts 24°
2026-04-23 06:22 28.45308 129.57881 34759 ft 513 kts 10°
2026-04-23 06:23 28.52148 129.59744 34754 ft 501 kts 358°
2026-04-23 06:23 28.59084 129.60717 34770 ft 504 kts 358°
2026-04-23 06:24 28.66067 129.61709 34763 ft 507 kts 358°
2026-04-23 06:24 28.73077 129.62763 34751 ft 508 kts 359°
2026-04-23 06:25 28.80080 129.63840 34775 ft 508 kts 358°
2026-04-23 06:25 28.85895 129.64733 34763 ft 507 kts 358°
2026-04-23 06:26 28.92887 129.65800 34724 ft 506 kts 358°
2026-04-23 06:26 28.99821 129.66867 34771 ft 501 kts 358°
2026-04-23 06:27 29.06726 129.67922 34755 ft 501 kts 358°
2026-04-23 06:27 29.13642 129.69068 34749 ft 507 kts
2026-04-23 06:28 29.20537 129.71214 34785 ft 517 kts
2026-04-23 06:28 29.27442 129.73641 34754 ft 520 kts
2026-04-23 06:29 29.34378 129.76062 34747 ft 522 kts
2026-04-23 06:29 29.41346 129.78453 34772 ft 523 kts
2026-04-23 06:30 29.48339 129.80837 34734 ft 524 kts
2026-04-23 06:30 29.55334 129.83229 34743 ft 524 kts
2026-04-23 06:31 29.62323 129.85619 34741 ft 524 kts
2026-04-23 06:31 29.69305 129.88013 34732 ft 523 kts
2026-04-23 06:32 29.76272 129.90407 34731 ft 522 kts
2026-04-23 06:32 29.83240 129.92804 34742 ft 523 kts
2026-04-23 06:33 29.90164 129.95188 34731 ft 523 kts
2026-04-23 06:33 29.97128 129.97590 34722 ft 523 kts
2026-04-23 06:34 30.04111 130.00001 34726 ft 525 kts
2026-04-23 06:34 30.11110 130.02422 34729 ft 526 kts
2026-04-23 06:35 30.18122 130.04852 34716 ft 526 kts
2026-04-23 06:35 30.25146 130.07289 34725 ft 528 kts
2026-04-23 06:36 30.32190 130.09737 34720 ft 529 kts
2026-04-23 06:36 30.39242 130.12192 34751 ft 530 kts
2026-04-23 06:37 30.46308 130.14654 34715 ft 531 kts
2026-04-23 06:37 30.53376 130.17123 34703 ft 530 kts
2026-04-23 06:38 30.60439 130.19593 34711 ft 530 kts
2026-04-23 06:38 30.67489 130.22062 34694 ft 529 kts
2026-04-23 06:39 30.74534 130.24533 34692 ft 528 kts
2026-04-23 06:39 30.81573 130.27005 34697 ft 528 kts
2026-04-23 06:40 30.88558 130.29461 34688 ft 528 kts
2026-04-23 06:40 30.95586 130.31938 34721 ft 527 kts
2026-04-23 06:41 31.02620 130.34418 34689 ft 528 kts
2026-04-23 06:41 31.09659 130.36906 34685 ft 529 kts
2026-04-23 06:42 31.16700 130.39398 34707 ft 530 kts
2026-04-23 06:42 31.23758 130.41899 34697 ft 531 kts
2026-04-23 06:43 31.30833 130.44411 34686 ft 532 kts
2026-04-23 06:43 31.37919 130.46931 34684 ft 533 kts
2026-04-23 06:44 31.45019 130.49463 34673 ft 533 kts
2026-04-23 06:44 31.52132 130.52000 34676 ft 534 kts
2026-04-23 06:45 31.59240 130.54539 34678 ft 534 kts
2026-04-23 06:45 31.66340 130.57109 34687 ft 536 kts
2026-04-23 06:46 31.73252 130.60691 34695 ft 552 kts 21°
2026-04-23 06:46 31.79808 130.65478 34708 ft 556 kts 24°
2026-04-23 06:47 31.86334 130.70364 34684 ft 555 kts 24°
2026-04-23 06:47 31.92867 130.75167 34693 ft 553 kts 23°
2026-04-23 06:48 31.99402 130.79930 34675 ft 552 kts 23°
2026-04-23 06:48 32.05913 130.84694 34710 ft 550 kts 24°
2026-04-23 06:49 32.12404 130.89456 34683 ft 548 kts 24°
2026-04-23 06:49 32.18890 130.94163 34662 ft 547 kts 23°
2026-04-23 06:50 32.25384 130.98829 34690 ft 547 kts 23°
2026-04-23 06:50 32.31885 131.03520 34680 ft 547 kts 23°
2026-04-23 06:51 32.38325 131.08190 34701 ft 547 kts 24°
2026-04-23 06:51 32.44788 131.12907 34680 ft 545 kts 25°
2026-04-23 06:52 32.51194 131.17688 34718 ft 543 kts 25°
2026-04-23 06:52 32.57584 131.22448 34715 ft 542 kts 25°
2026-04-23 06:53 32.63963 131.27200 34700 ft 541 kts 25°
2026-04-23 06:53 32.70308 131.31950 34738 ft 537 kts 25°
2026-04-23 06:54 32.76629 131.36665 34722 ft 536 kts 25°
2026-04-23 06:54 32.82945 131.41395 34772 ft 537 kts 25°
2026-04-23 06:55 32.89303 131.46080 34762 ft 538 kts 25°
2026-04-23 06:55 32.95675 131.50771 34744 ft 539 kts 25°
2026-04-23 06:56 33.02034 131.55474 34764 ft 538 kts 26°
2026-04-23 06:56 33.08393 131.60186 34746 ft 538 kts 26°
2026-04-23 06:57 33.14746 131.64903 34747 ft 538 kts 26°
2026-04-23 06:57 33.21104 131.69596 34745 ft 535 kts 24°
2026-04-23 06:58 33.27736 131.73406 34755 ft 526 kts 15°
2026-04-23 06:58 33.34483 131.76766 34746 ft 525 kts 16°
2026-04-23 06:59 33.41220 131.80156 34754 ft 526 kts 16°
2026-04-23 06:59 33.47951 131.83616 34774 ft 527 kts 17°
2026-04-23 07:00 33.54701 131.87107 34736 ft 528 kts 17°
2026-04-23 07:00 33.61437 131.90590 34747 ft 526 kts 17°
2026-04-23 07:01 33.68158 131.94067 34753 ft 526 kts 17°
2026-04-23 07:01 33.74871 131.97545 34744 ft 525 kts 17°
2026-04-23 07:02 33.81577 132.01016 34757 ft 525 kts 17°
2026-04-23 07:02 33.88241 132.04468 34743 ft 525 kts 17°
2026-04-23 07:03 33.94950 132.07948 34768 ft 525 kts 17°
2026-04-23 07:03 34.01665 132.11447 34756 ft 526 kts 17°
2026-04-23 07:04 34.08199 132.15538 34766 ft 534 kts 27°
2026-04-23 07:04 34.14143 132.21023 34771 ft 541 kts 37°
2026-04-23 07:05 34.19759 132.27092 34770 ft 541 kts 38°
2026-04-23 07:05 34.25386 132.33115 34785 ft 541 kts 37°
2026-04-23 07:06 34.31054 132.39097 34774 ft 541 kts 37°
2026-04-23 07:06 34.36716 132.45088 34788 ft 540 kts 37°
2026-04-23 07:07 34.42366 132.51083 34776 ft 540 kts 37°
2026-04-23 07:07 34.48013 132.57087 34790 ft 539 kts 37°
2026-04-23 07:08 34.53651 132.63094 34760 ft 539 kts 37°
2026-04-23 07:08 34.59278 132.69098 34780 ft 538 kts 37°
2026-04-23 07:09 34.64899 132.75106 34792 ft 539 kts 37°
2026-04-23 07:09 34.70491 132.81096 34785 ft 539 kts 37°
2026-04-23 07:10 34.76114 132.87133 34805 ft 539 kts 38°
2026-04-23 07:10 34.81771 132.93216 34796 ft 539 kts 38°
2026-04-23 07:11 34.87370 132.99247 34799 ft 539 kts 38°
2026-04-23 07:12 34.95795 133.08339 34796 ft 539 kts 38°
2026-04-23 07:12 35.01410 133.14409 34826 ft 539 kts 38°
2026-04-23 07:13 35.07015 133.20481 34823 ft 539 kts 38°
2026-04-23 07:13 35.11670 133.25535 34805 ft 539 kts 38°
2026-04-23 07:14 35.18173 133.32608 34827 ft 538 kts 38°
2026-04-23 07:14 35.22850 133.37706 34836 ft 538 kts 38°
2026-04-23 07:15 35.29344 133.44795 34836 ft 539 kts 38°
2026-04-23 07:15 35.33992 133.49879 34849 ft 539 kts 38°
2026-04-23 07:16 35.39586 133.56007 34872 ft 540 kts 39°
2026-04-23 07:16 35.45188 133.62160 34845 ft 541 kts 39°
2026-04-23 07:17 35.50797 133.68332 34840 ft 541 kts 39°
2026-04-23 07:17 35.56401 133.74508 34860 ft 542 kts 39°
2026-04-23 07:18 35.62015 133.80709 34858 ft 543 kts 39°
2026-04-23 07:18 35.67639 133.86932 34848 ft 544 kts 39°
2026-04-23 07:19 35.73264 133.93170 34861 ft 545 kts 39°
2026-04-23 07:19 35.78891 133.99422 34850 ft 546 kts 39°
2026-04-23 07:20 35.84537 134.05708 34872 ft 547 kts 39°
2026-04-23 07:20 35.90186 134.12009 34865 ft 548 kts 39°
2026-04-23 07:21 35.95839 134.18329 34863 ft 549 kts 39°
2026-04-23 07:21 36.01493 134.24661 34894 ft 549 kts 39°
2026-04-23 07:22 36.07149 134.31010 34874 ft 550 kts 39°
2026-04-23 07:22 36.12807 134.37374 34878 ft 550 kts 39°
2026-04-23 07:23 36.18468 134.43754 34874 ft 551 kts 39°
2026-04-23 07:23 36.23889 134.50479 34886 ft 554 kts 48°
2026-04-23 07:24 36.28368 134.58250 34880 ft 555 kts 58°
2026-04-23 07:24 36.32339 134.66472 34863 ft 556 kts 59°
2026-04-23 07:25 36.36314 134.74722 34873 ft 558 kts 59°
2026-04-23 07:25 36.40312 134.82914 34871 ft 559 kts 58°
2026-04-23 07:26 36.44353 134.91161 34885 ft 560 kts 58°
2026-04-23 07:26 36.48400 134.99437 34877 ft 561 kts 58°
2026-04-23 07:27 36.52439 135.07731 34881 ft 561 kts 59°
2026-04-23 07:27 36.56481 135.16055 34898 ft 563 kts 59°
2026-04-23 07:28 36.60532 135.24418 34893 ft 565 kts 59°
2026-04-23 07:28 36.64589 135.32813 34890 ft 566 kts 59°
2026-04-23 07:29 36.68646 135.41228 34883 ft 567 kts 59°
2026-04-23 07:29 36.72695 135.49648 34898 ft 566 kts 58°
2026-04-23 07:30 36.76736 135.58076 34885 ft 566 kts 58°
2026-04-23 07:30 36.80769 135.66504 34892 ft 565 kts 59°
2026-04-23 07:31 36.84791 135.74933 34899 ft 566 kts 59°
2026-04-23 07:31 36.88812 135.83383 34895 ft 566 kts 59°
2026-04-23 07:32 36.92830 135.91845 34900 ft 566 kts 59°
2026-04-23 07:32 36.96816 136.00263 34900 ft 567 kts 59°
2026-04-23 07:33 37.00828 136.08755 34892 ft 567 kts 59°
2026-04-23 07:33 37.04836 136.17259 34905 ft 568 kts 59°
2026-04-23 07:34 37.08845 136.25789 34902 ft 569 kts 59°
2026-04-23 07:34 37.12849 136.34331 34892 ft 569 kts 59°
2026-04-23 07:35 37.16853 136.42898 34904 ft 569 kts 59°
2026-04-23 07:35 37.20851 136.51472 34933 ft 570 kts 59°
2026-04-23 07:36 37.24847 136.60065 34911 ft 570 kts 59°
2026-04-23 07:36 37.28839 136.68672 34910 ft 571 kts 59°
2026-04-23 07:37 37.32829 136.77296 34918 ft 572 kts 59°
2026-04-23 07:37 37.36822 136.85951 34904 ft 572 kts 59°
2026-04-23 07:38 37.40807 136.94601 34927 ft 572 kts 59°
2026-04-23 07:38 37.44788 137.03285 34917 ft 573 kts 59°
2026-04-23 07:39 37.48770 137.11987 34921 ft 573 kts 59°
2026-04-23 07:39 37.52746 137.20694 34913 ft 574 kts 59°
2026-04-23 07:40 37.56715 137.29408 34930 ft 573 kts 59°
2026-04-23 07:40 37.60677 137.38134 34931 ft 573 kts 59°
2026-04-23 07:41 37.64636 137.46876 34925 ft 574 kts 59°
2026-04-23 07:41 37.68588 137.55627 34923 ft 574 kts 59°
2026-04-23 07:42 37.72537 137.64395 34924 ft 575 kts 59°
2026-04-23 07:42 37.76485 137.73184 34921 ft 575 kts 59°
2026-04-23 07:43 37.80428 137.81987 34924 ft 576 kts 59°
2026-04-23 07:43 37.84368 137.90806 34920 ft 576 kts 59°
2026-04-23 07:44 37.88302 137.99638 34921 ft 576 kts 59°
2026-04-23 07:44 37.92234 138.08487 34923 ft 576 kts 59°
2026-04-23 07:45 37.96156 138.17336 34923 ft 576 kts 59°
2026-04-23 07:45 38.00045 138.26140 34941 ft 577 kts 59°
2026-04-23 07:46 38.04040 138.34966 34921 ft 576 kts 53°
2026-04-23 07:46 38.09223 138.42600 34948 ft 567 kts 38°
2026-04-23 07:47 38.15451 138.48546 34963 ft 557 kts 25°
2026-04-23 07:47 38.22032 138.53781 34949 ft 559 kts 25°
2026-04-23 07:48 38.28625 138.59069 34946 ft 562 kts 25°
2026-04-23 07:48 38.35209 138.64462 34944 ft 564 kts 26°
2026-04-23 07:49 38.41792 138.69909 34947 ft 565 kts 26°
2026-04-23 07:49 38.48393 138.75380 34949 ft 567 kts 25°
2026-04-23 07:50 38.55013 138.80870 34965 ft 567 kts 25°
2026-04-23 07:50 38.61625 138.86364 34949 ft 567 kts 25°
2026-04-23 07:51 38.68241 138.91872 34946 ft 567 kts 25°
2026-04-23 07:51 38.74850 138.97387 34947 ft 567 kts 25°
2026-04-23 07:52 38.81461 139.02916 34953 ft 568 kts 25°
2026-04-23 07:52 38.88073 139.08458 34964 ft 568 kts 25°
2026-04-23 07:53 38.94683 139.14011 34956 ft 568 kts 25°
2026-04-23 07:53 39.01300 139.19584 34976 ft 568 kts 25°
2026-04-23 07:54 39.07913 139.25164 34969 ft 568 kts 25°
2026-04-23 07:54 39.14521 139.30751 34957 ft 568 kts 25°
2026-04-23 07:55 39.21121 139.36346 34962 ft 568 kts 25°
2026-04-23 07:55 39.27717 139.41952 34951 ft 567 kts 25°
2026-04-23 07:56 39.34298 139.47558 34958 ft 567 kts 25°
2026-04-23 07:56 39.40877 139.53175 34959 ft 566 kts 25°
2026-04-23 07:57 39.47450 139.58799 34962 ft 566 kts 25°
2026-04-23 07:57 39.54022 139.64436 34964 ft 567 kts 25°
2026-04-23 07:58 39.60602 139.70092 34960 ft 567 kts 25°
2026-04-23 07:58 39.67181 139.75762 34976 ft 568 kts 25°
2026-04-23 07:59 39.73716 139.81407 34965 ft 568 kts 25°
2026-04-23 07:59 39.80296 139.87103 34956 ft 569 kts 25°
2026-04-23 08:00 39.86878 139.92846 34958 ft 570 kts 25°
2026-04-23 08:00 39.93445 139.98633 34965 ft 570 kts 25°
2026-04-23 08:01 40.00009 140.04432 34977 ft 570 kts 25°
2026-04-23 08:01 40.06591 140.10249 34965 ft 573 kts 25°
2026-04-23 08:02 40.12127 140.15151 34952 ft 574 kts 26°
2026-04-23 08:02 40.18742 140.21023 34948 ft 576 kts 26°
2026-04-23 08:03 40.26447 140.27883 34936 ft 577 kts 26°
2026-04-23 08:03 40.32012 140.32846 34962 ft 577 kts 26°
2026-04-23 08:04 40.38605 140.38747 35018 ft 578 kts 26°
2026-04-23 08:04 40.45235 140.44705 34996 ft 577 kts 26°
2026-04-23 08:05 40.51853 140.50643 34999 ft 575 kts 25°
2026-04-23 08:05 40.58445 140.56565 34972 ft 572 kts 25°
2026-04-23 08:06 40.64999 140.62487 34966 ft 571 kts 26°
2026-04-23 08:06 40.71579 140.68330 34965 ft 568 kts 21°
2026-04-23 08:07 40.78510 140.72992 34762 ft 546 kts
2026-04-23 08:07 40.82038 140.74681 34347 ft 536 kts
2026-04-23 08:07 40.85595 140.76290 33347 ft 545 kts
2026-04-23 08:07 40.89180 140.77976 32634 ft 548 kts
2026-04-23 08:08 40.92743 140.79724 32095 ft 545 kts
2026-04-23 08:08 40.96271 140.81485 31738 ft 538 kts
2026-04-23 08:08 40.99751 140.83233 31351 ft 531 kts
2026-04-23 08:08 41.03182 140.84954 30972 ft 524 kts
2026-04-23 08:09 41.06577 140.86649 30585 ft 517 kts
2026-04-23 08:09 41.09926 140.88314 30192 ft 511 kts
2026-04-23 08:09 41.13238 140.89957 29742 ft 505 kts
2026-04-23 08:09 41.16508 140.91579 29257 ft 499 kts
2026-04-23 08:10 41.19744 140.93186 28753 ft 494 kts
2026-04-23 08:10 41.22952 140.94782 28269 ft 490 kts
2026-04-23 08:10 41.29259 140.97938 27253 ft 477 kts
2026-04-23 08:11 41.32346 140.99478 26863 ft 471 kts
2026-04-23 08:11 41.35401 141.00979 26390 ft 467 kts
2026-04-23 08:11 41.38406 141.02442 25863 ft 464 kts
2026-04-23 08:11 41.41415 141.03915 25517 ft 458 kts
2026-04-23 08:12 41.44386 141.05381 25127 ft 453 kts
2026-04-23 08:12 41.47331 141.06834 24653 ft 450 kts 10°
2026-04-23 08:12 41.50263 141.08283 24250 ft 447 kts 10°
2026-04-23 08:12 41.53159 141.09714 23868 ft 442 kts 11°
2026-04-23 08:13 41.56025 141.11131 23480 ft 437 kts 11°
2026-04-23 08:13 41.58859 141.12534 23015 ft 433 kts 11°
2026-04-23 08:13 41.61671 141.13926 22530 ft 429 kts 11°
2026-04-23 08:13 41.64458 141.15307 22076 ft 425 kts 11°
2026-04-23 08:14 41.67218 141.16676 21611 ft 422 kts 12°
2026-04-23 08:14 41.69959 141.18042 21146 ft 419 kts 12°
2026-04-23 08:14 41.72679 141.19414 20689 ft 416 kts 12°
2026-04-23 08:14 41.75377 141.20782 20263 ft 413 kts 12°
2026-04-23 08:15 41.78057 141.22142 19833 ft 410 kts 12°
2026-04-23 08:15 41.80710 141.23488 19422 ft 407 kts 13°
2026-04-23 08:15 41.83345 141.24824 19023 ft 403 kts 13°
2026-04-23 08:15 41.85962 141.26152 18615 ft 400 kts 13°
2026-04-23 08:16 41.88557 141.27469 18200 ft 397 kts 13°
2026-04-23 08:16 41.91129 141.28777 17735 ft 394 kts 13°
2026-04-23 08:16 41.93685 141.30092 17279 ft 393 kts 15°
2026-04-23 08:16 41.96132 141.31752 16822 ft 397 kts 25°
2026-04-23 08:17 41.98410 141.33868 16384 ft 399 kts 33°
2026-04-23 08:17 42.00479 141.36361 15957 ft 399 kts 38°
2026-04-23 08:17 42.02469 141.38957 15486 ft 398 kts 39°
2026-04-23 08:17 42.04447 141.41555 15050 ft 396 kts 39°
2026-04-23 08:18 42.06415 141.44123 14676 ft 392 kts 39°
2026-04-23 08:18 42.08349 141.46621 14303 ft 389 kts 39°
2026-04-23 08:18 42.10279 141.49107 14152 ft 378 kts 38°
2026-04-23 08:18 42.12151 141.51509 14067 ft 363 kts 36°
2026-04-23 08:19 42.14148 141.53339 13911 ft 333 kts 15°
2026-04-23 08:19 42.16258 141.54432 13744 ft 320 kts 13°
2026-04-23 08:19 42.18336 141.55529 13557 ft 313 kts 13°
2026-04-23 08:19 42.20314 141.56596 13309 ft 308 kts 14°
2026-04-23 08:20 42.22293 141.57672 12982 ft 306 kts 14°
2026-04-23 08:20 42.24260 141.58747 12651 ft 304 kts 15°
2026-04-23 08:20 42.26210 141.59816 12325 ft 301 kts 15°
2026-04-23 08:20 42.28139 141.60879 12024 ft 298 kts 15°
2026-04-23 08:21 42.30050 141.61933 11714 ft 295 kts 16°
2026-04-23 08:21 42.31943 141.62979 11414 ft 293 kts 16°
2026-04-23 08:21 42.33821 141.64018 11117 ft 290 kts 17°
2026-04-23 08:21 42.35680 141.65047 10824 ft 288 kts 17°
2026-04-23 08:22 42.37524 141.66069 10549 ft 285 kts 16°
2026-04-23 08:22 42.39363 141.67090 10184 ft 286 kts 17°
2026-04-23 08:22 42.41202 141.68108 9870 ft 285 kts 17°
2026-04-23 08:22 42.43022 141.69119 9509 ft 279 kts 17°
2026-04-23 08:23 42.44769 141.70240 8924 ft 281 kts 31°
2026-04-23 08:23 42.46093 141.72197 8301 ft 287 kts 60°
2026-04-23 08:23 42.46629 141.74779 7713 ft 286 kts 89°
2026-04-23 08:23 42.46458 141.77432 7216 ft 281 kts 100°
2026-04-23 08:24 42.45869 141.79915 6673 ft 275 kts 124°
2026-04-23 08:24 42.44579 141.81741 6123 ft 266 kts 153°
2026-04-23 08:24 42.42875 141.82479 5636 ft 250 kts 185°
2026-04-23 08:24 42.41284 141.81933 5680 ft 237 kts 216°
2026-04-23 08:25 42.40117 141.80332 5590 ft 245 kts 243°
2026-04-23 08:25 42.39654 141.78114 5098 ft 250 kts 270°
2026-04-23 08:25 42.40055 141.75842 4428 ft 252 kts 299°
2026-04-23 08:25 42.41239 141.74167 4103 ft 240 kts 327°
2026-04-23 08:26 42.42726 141.73306 4096 ft 233 kts 346°
2026-04-23 08:26 42.44394 141.73029 4141 ft 248 kts 353°
2026-04-23 08:26 42.46137 141.72897 4141 ft 252 kts 355°
2026-04-23 08:26 42.47868 141.72787 4122 ft 245 kts 355°
2026-04-23 08:27 42.49573 141.72677 4129 ft 245 kts 355°
2026-04-23 08:27 42.51282 141.72559 4134 ft 246 kts 354°
2026-04-23 08:27 42.53005 141.72432 3952 ft 251 kts 354°
2026-04-23 08:27 42.54740 141.72300 3626 ft 247 kts 354°
2026-04-23 08:28 42.56431 141.72169 3508 ft 240 kts 355°
2026-04-23 08:28 42.58070 141.72039 3372 ft 229 kts 355°
2026-04-23 08:28 42.59609 141.71916 3177 ft 216 kts 355°
2026-04-23 08:28 42.61068 141.71797 2949 ft 204 kts 355°
2026-04-23 08:29 42.62474 141.71681 2714 ft 202 kts 355°
2026-04-23 08:29 42.63868 141.71578 2443 ft 199 kts 358°
2026-04-23 08:29 42.65200 141.71526 2236 ft 183 kts 355°
2026-04-23 08:29 42.66388 141.71368 2046 ft 163 kts 352°
2026-04-23 08:30 42.67466 141.71181 1868 ft 149 kts 352°
2026-04-23 08:30 42.68467 141.71006 1679 ft 145 kts 353°
2026-04-23 08:30 42.69460 141.70830 1479 ft 146 kts 352°
2026-04-23 08:30 42.70471 141.70653 1262 ft 145 kts 352°
2026-04-23 08:31 42.71474 141.70474 1056 ft 146 kts 352°
2026-04-23 08:31 42.72486 141.70293 836 ft 147 kts 353°
2026-04-23 08:31 42.73499 141.70118 641 ft 146 kts 352°
2026-04-23 08:31 42.74500 141.69927 437 ft 143 kts 353°
2026-04-23 08:32 42.75483 141.69767 237 ft 142 kts 353°
2026-04-23 08:32 42.76472 141.69595 89 ft 144 kts 353°
2026-04-23 08:32 42.77379 141.69438 71 ft 112 kts 353°
2026-04-23 08:32 42.77997 141.69330 87 ft 67 kts 353°
2026-04-23 08:33 42.78326 141.69272 89 ft 33 kts 352°
2026-04-23 08:33 42.78530 141.69235 91 ft 26 kts 353°
2026-04-23 08:33 42.78713 141.69203 92 ft 26 kts 353°
2026-04-23 08:33 42.78836 141.69120 91 ft 20 kts 298°
2026-04-23 08:34 42.78839 141.68939 93 ft 19 kts 262°
2026-04-23 08:34 42.78822 141.68762 97 ft 18 kts 263°
2026-04-23 08:34 42.78809 141.68626 97 ft 13 kts 262°
2026-04-23 08:34 42.78796 141.68504 95 ft 14 kts 259°
2026-04-23 08:35 42.78741 141.68424 93 ft 11 kts 197°
2026-04-23 08:35 42.78678 141.68406 94 ft 4 kts 204°
2026-04-23 08:35 42.78659 141.68382 93 ft 5 kts 239°
2026-04-23 08:35 42.78659 141.68310 95 ft 6 kts 284°
2026-04-23 08:36 42.78662 141.68293 95 ft 0 kts 284°
2026-04-23 08:36 42.78664 141.68284 95 ft 2 kts 284°
2026-04-23 08:36 42.78665 141.68280 95 ft 0 kts 284°
2026-04-23 08:36 42.78665 141.68278 97 ft 1 kts 284°
2026-04-23 08:37 42.78665 141.68277 97 ft 0 kts 284°